Wind_Speed
5 6 2 3 2 5 4 4 3 13 13 14 13 12 16 25 10 13 30 24 24 20 19 18 16 15 13 11 11 10 8 8 7 6 7 7 7 7 7 8 10 13 13 15 16 17 18 17 18
5 5 5 5 4 6 5 10 10 11 13 19 11 14 16 17 14 32 29 25 23 20 18 17 17 14 11 10 9 10 9 9 9 8 8 7 7 7 8 8 10 12 13 15 16 17 19 19 16
8 7 4 3 2 4 6 7 8 18 20 14 15 15 12 11 30 26 29 27 23 19 17 17 15 14 12 10 9 8 9 10 10 9 10 9 8 9 9 9 10 11 12 14 15 13 15 16 17
6 4 7 4 7 9 9 10 18 21 16 12 14 13 12 19 22 28 29 25 21 18 15 17 14 12 10 10 9 9 9 10 10 10 9 10 11 10 8 9 11 11 11 13 14 13 13 14 15
8 5 4 3 10 9 9 17 23 13 15 16 8 11 24 19 23 29 28 23 19 20 13 13 12 10 9 9 9 9 9 9 10 10 11 11 13 12 11 10 11 12 12 14 13 14 13 13 14
5 7 2 2 12 10 10 20 13 17 14 11 19 22 13 18 29 28 25 21 18 15 16 10 12 10 9 9 9 9 10 11 11 11 12 11 13 13 11 12 11 13 14 14 12 12 13 13 13
5 6 4 5 11 11 8 8 12 8 10 10 15 16 16 26 27 26 23 21 17 19 15 11 10 11 9 9 10 10 10 11 11 12 12 12 12 13 13 12 14 16 15 15 15 14 13 14 14
12 6 3 5 9 7 6 7 1 6 11 8 15 11 24 29 27 25 22 19 18 13 13 12 10 9 11 11 11 11 10 11 12 12 14 15 17 15 18 13 16 16 15 15 15 14 15 14 15
11 4 7 6 3 11 15 7 4 2 11 2 4 23 30 30 27 24 21 19 16 13 12 14 10 10 12 10 11 12 11 12 12 12 13 15 12 11 14 12 16 16 15 16 16 17 16 17 19
11 3 7 9 5 14 21 13 12 8 11 9 9 30 30 29 26 25 22 19 16 15 13 13 15 11 16 10 11 9 8 8 12 7 15 11 16 15 11 14 15 15 15 17 19 17 15 10 8
10 2 10 12 9 14 17 15 3 11 7 10 22 31 31 29 26 23 21 18 17 14 14 15 15 14 11 10 10 12 10 8 9 10 12 12 10 15 10 14 12 14 13 8 11 10 12 8 7
8 4 10 13 10 13 11 11 5 6 6 11 18 27 30 29 26 23 21 19 17 15 14 10 12 14 14 10 10 6 9 9 10 9 9 11 12 10 8 10 9 9 9 8 8 8 6 10 8
12 5 5 12 9 15 17 13 7 2 5 12 21 29 28 26 24 21 20 19 18 15 14 12 12 13 12 9 10 8 9 12 7 9 8 9 7 10 9 10 8 8 7 7 7 5 8 7 8
11 7 7 11 14 16 12 17 12 7 6 14 26 31 28 25 23 21 20 19 17 16 14 12 12 10 12 8 9 11 3 11 10 9 9 10 7 7 8 9 8 8 7 5 7 2 11 7 7
5 10 9 9 15 14 12 12 12 9 11 20 28 29 26 24 21 21 19 18 17 16 14 13 12 12 12 10 11 8 7 8 12 5 8 9 7 8 8 7 8 7 4 7 7 11 8 6 4
14 16 13 17 11 11 12 13 15 13 14 22 27 26 25 23 21 19 19 17 16 15 15 14 12 12 12 10 9 8 4 4 12 7 5 6 9 8 7 6 6 6 5 4 5 4 4 4 4
14 14 12 11 15 12 10 12 17 10 12 21 25 25 24 22 21 19 19 18 17 16 16 15 14 13 13 12 9 7 6 6 4 6 8 6 7 6 6 8 8 6 6 6 4 2 8 5 4
18 19 15 14 13 8 12 10 14 20 15 16 24 25 24 23 22 20 19 18 17 16 16 15 15 15 14 13 11 7 7 6 5 4 6 5 6 4 10 7 6 9 6 5 1 5 2 4 0
15 15 10 14 15 13 5 13 12 29 25 23 17 19 23 23 22 20 19 17 17 16 16 16 16 16 15 12 10 8 5 6 3 3 4 6 6 5 13 6 6 10 5 4 6 8 4 3 2
19 17 13 12 15 15 18 16 9 12 13 19 27 23 19 17 23 22 21 18 18 18 17 17 17 16 14 12 12 8 5 3 5 5 4 6 5 6 8 8 7 10 5 5 4 5 4 4 1
15 13 15 13 10 14 10 14 19 18 17 20 13 22 20 18 21 25 23 20 17 18 18 19 18 17 16 12 8 8 9 8 6 6 4 7 6 5 5 12 7 10 8 6 6 6 3 3 1
16 16 15 13 14 12 9 3 7 16 9 7 12 14 16 22 23 27 25 22 19 18 18 18 19 18 16 14 9 11 11 9 9 10 8 6 7 5 7 6 7 11 6 12 5 4 3 5 5
11 9 6 12 15 18 16 6 9 15 14 11 14 16 19 21 21 26 26 24 21 18 19 18 19 18 16 14 11 9 7 4 8 8 6 9 9 7 7 8 6 8 4 9 7 5 9 2 3
4 9 14 13 13 12 22 8 5 7 3 18 17 16 19 20 22 23 21 24 23 20 20 20 20 19 18 15 14 10 9 6 10 7 8 8 7 6 8 8 8 9 3 9 6 6 10 4 3
9 13 10 11 12 12 25 14 8 9 11 13 12 12 5 14 22 23 24 23 26 24 22 22 21 21 20 18 15 14 12 11 2 6 6 9 12 9 8 10 9 5 9 10 8 8 6 7 4
16 19 12 12 14 14 19 11 10 18 20 15 13 12 9 3 13 18 23 24 27 25 24 23 23 22 20 19 18 16 15 11 10 10 10 8 8 8 10 6 10 10 7 8 9 7 8 8 7
18 20 23 12 15 14 11 15 13 15 17 15 11 10 9 9 9 19 22 24 29 29 26 25 23 23 21 20 19 18 17 16 13 12 10 7 11 8 8 7 10 9 9 10 10 9 10 6 10
13 13 18 9 16 15 16 18 15 14 10 8 12 13 13 12 15 17 13 19 18 24 28 25 23 22 19 19 19 18 18 17 19 14 14 14 11 13 15 8 9 11 10 10 11 9 9 10 8
12 10 11 15 16 13 11 10 15 14 11 9 11 12 14 15 15 13 9 9 6 20 7 29 23 20 19 18 19 19 18 18 17 17 15 14 16 12 9 8 11 10 9 10 11 14 8 9 10
12 10 14 11 16 14 11 4 9 12 15 14 12 13 14 15 16 16 14 8 6 7 4 10 19 18 14 15 19 18 18 20 18 18 17 15 15 17 14 14 13 13 12 11 12 12 11 11 11
Wind_Direction
163 153 159 204 251 228 77 89 136 122 93 103 110 98 72 35 40 98 138 139 139 138 141 135 131 123 117 112 105 100 99 100 103 109 113 117 105 113 108 96 88 80 80 81 85 85 78 80 81
142 191 222 250 240 177 93 141 135 98 116 113 114 114 105 59 101 125 132 140 136 139 134 135 130 125 121 111 101 105 105 103 102 101 107 110 112 106 101 100 97 92 89 89 87 87 79 79 83
163 213 270 245 157 59 111 139 130 112 126 133 121 66 51 96 123 127 135 136 136 133 140 142 134 127 123 118 117 112 104 105 103 92 102 106 105 116 109 105 96 99 97 93 89 85 83 77 78
188 250 256 255 112 73 110 129 125 135 114 109 109 86 85 129 126 134 135 135 135 137 144 139 135 128 123 113 107 104 98 100 98 88 89 97 98 94 112 106 108 111 105 97 85 77 88 85 76
226 247 256 238 92 106 95 121 136 126 122 124 120 96 117 126 132 137 135 136 135 133 140 141 141 137 122 107 105 103 97 91 100 95 96 93 98 100 99 108 114 113 107 100 90 86 88 82 72
254 249 265 121 111 108 101 125 137 92 86 103 107 119 119 137 141 141 137 135 133 129 134 135 136 127 118 110 108 106 101 102 102 101 100 100 98 92 101 108 116 110 109 100 92 92 90 77 79
256 268 199 103 126 126 110 129 147 114 132 132 137 114 133 143 145 143 139 136 134 131 123 123 130 132 128 120 115 114 105 103 99 103 100 99 96 94 91 104 110 109 104 97 95 94 85 79 83
239 259 302 131 165 129 127 107 110 235 104 104 132 138 148 149 148 144 142 140 139 131 133 136 133 134 117 122 120 115 107 103 99 97 100 90 83 88 80 95 113 110 105 100 98 89 79 80 81
250 331 291 81 103 143 152 136 148 299 133 144 122 141 146 148 149 148 146 143 136 138 137 143 147 132 124 118 122 112 100 96 92 97 98 82 97 75 94 123 115 113 106 102 91 79 70 70 70
244 216 10 18 133 158 163 152 135 170 141 149 158 134 147 149 154 152 152 149 149 141 144 130 135 105 120 131 124 114 115 107 115 117 86 110 104 122 105 112 113 105 100 97 85 74 68 69 48
265 293 85 52 118 158 152 136 118 163 129 141 135 146 153 152 156 156 154 152 148 145 147 153 137 141 128 144 118 142 120 110 85 102 117 119 125 91 98 89 103 94 92 84 73 70 70 56 80
268 188 102 115 89 119 140 131 87 134 126 170 152 158 157 156 159 159 155 153 150 150 138 126 153 152 135 124 138 116 117 124 112 124 115 124 91 102 114 121 137 125 105 115 112 85 81 82 70
217 158 147 121 142 129 145 136 130 152 158 177 161 163 161 159 160 158 156 154 155 153 151 148 150 156 141 138 132 137 131 126 120 109 125 104 137 113 121 119 123 124 120 106 94 81 101 99 88
202 163 136 159 132 130 142 136 139 176 146 159 157 163 163 162 162 159 159 158 160 156 158 159 154 149 141 145 138 137 66 111 120 131 137 127 129 125 118 118 119 124 123 119 106 105 83 75 106
210 206 190 180 152 146 134 159 144 150 159 153 158 163 165 164 163 163 163 162 162 160 162 163 156 151 155 147 142 130 132 136 141 130 126 146 130 132 145 124 131 137 143 123 102 92 74 102 83
221 234 186 153 197 159 161 150 143 162 168 157 161 166 166 167 166 167 167 166 164 162 162 160 155 160 151 156 144 139 173 212 110 137 141 148 158 157 146 135 147 172 132 142 122 97 109 95 116
212 203 203 149 165 166 94 133 133 168 167 160 168 169 171 171 169 171 171 170 167 166 163 161 162 164 157 161 147 143 179 116 118 103 144 155 139 167 161 157 189 145 151 155 147 316 85 100 143
192 235 180 143 171 150 122 135 156 177 163 177 176 174 178 177 175 173 176 173 170 170 167 165 161 168 160 153 157 164 157 143 124 147 126 127 127 156 144 155 179 126 151 135 171 106 135 84 297
215 213 191 135 144 134 121 139 191 188 178 173 178 187 188 182 175 173 175 175 174 173 171 170 166 173 163 168 163 171 194 160 149 148 147 152 170 148 141 161 151 134 156 161 121 103 129 120 130
261 208 163 123 165 120 176 149 207 190 186 179 173 176 193 200 175 174 174 175 178 176 176 173 173 176 169 170 171 187 181 149 175 176 136 155 154 146 132 140 152 152 179 158 172 191 165 101 319
247 200 132 176 164 130 150 137 185 169 197 152 175 172 184 199 186 177 178 179 180 182 181 179 177 177 166 179 190 194 160 176 166 164 157 167 155 154 165 152 166 170 150 148 140 137 170 125 85
206 221 164 151 187 169 152 133 202 157 113 147 172 162 189 193 203 186 180 188 183 183 183 183 181 182 177 185 187 188 183 184 179 153 160 155 168 169 169 168 176 161 197 177 162 191 134 152 138
232 183 242 185 220 133 165 154 309 155 151 166 165 172 188 192 201 200 191 191 185 181 184 185 184 188 186 189 174 196 204 186 149 184 168 154 174 169 175 176 187 182 169 197 171 170 167 188 116
46 157 198 233 238 238 155 163 210 129 98 134 155 178 171 188 191 200 203 191 191 186 184 187 189 195 191 196 195 193 213 187 181 164 167 168 162 186 184 192 198 186 159 190 180 187 175 178 181
197 202 192 209 216 225 169 154 158 122 74 45 33 7 156 206 186 195 195 192 199 189 190 188 195 198 202 205 209 209 210 206 187 186 204 213 184 173 199 198 203 189 186 185 197 214 207 204 186
209 216 209 194 204 203 204 132 129 113 92 57 34 12 8 288 198 202 204 195 199 197 191 195 196 203 203 207 215 219 217 213 209 216 210 226 222 189 209 238 198 186 205 195 218 217 213 228 222
195 234 235 270 218 214 123 97 122 131 110 84 56 38 26 6 285 197 207 216 204 194 196 197 199 210 204 207 213 219 221 208 213 217 229 224 224 186 218 203 203 195 203 201 225 200 216 217 234
264 239 242 241 257 207 138 159 151 111 84 75 45 33 31 35 28 159 199 218 230 200 198 200 203 206 205 206 212 212 214 219 207 214 213 216 221 238 218 179 203 207 208 208 202 214 240 224 217
213 241 252 255 254 218 155 111 111 125 105 89 62 45 42 45 43 55 61 161 192 222 208 189 200 203 209 202 211 214 213 214 215 214 218 219 211 223 227 214 207 217 220 218 218 194 228 217 222
301 263 235 242 231 269 293 105 85 124 120 103 80 61 52 51 53 51 48 106 117 163 169 109 182 206 207 227 214 211 215 207 217 214 216 215 217 220 220 222 220 217 224 233 236 224 222 226 225
Height
1509 1510 1514 1514 1518 1505 1498 1504 1487 1485 1489 1489 1493 1492 1499 1503 1513 1522 1533 1539 1544 1549 1549 1551 1553 1555 1557 1558 1559 1560 1561 1561 1562 1563 1563 1564 1565 1566 1566 1567 1567 1568 1569 1569 1570 1570 1570 1570 1570
1511 1514 1514 1511 1509 1499 1501 1492 1491 1485 1494 1497 1499 1503 1503 1514 1519 1525 1534 1542 1546 1550 1554 1554 1555 1557 1559 1560 1561 1562 1563 1563 1564 1565 1565 1566 1567 1567 1568 1568 1569 1570 1571 1572 1573 1573 1573 1573 1573
1511 1515 1513 1503 1498 1506 1505 1490 1489 1494 1498 1499 1501 1502 1511 1525 1527 1530 1538 1544 1549 1553 1556 1555 1557 1559 1561 1562 1563 1564 1565 1565 1566 1566 1567 1567 1568 1569 1570 1570 1571 1572 1573 1574 1573 1575 1575 1576 1576
1514 1515 1512 1503 1498 1496 1494 1490 1493 1496 1497 1502 1506 1514 1524 1526 1530 1535 1541 1547 1551 1555 1558 1557 1559 1561 1562 1564 1565 1565 1566 1567 1567 1567 1568 1569 1569 1570 1571 1572 1573 1575 1575 1576 1576 1577 1577 1578 1578
1513 1511 1504 1504 1496 1496 1493 1491 1497 1498 1502 1505 1507 1518 1525 1531 1534 1539 1544 1549 1553 1556 1558 1559 1561 1563 1564 1566 1566 1568 1568 1569 1569 1570 1570 1571 1571 1572 1572 1574 1575 1576 1578 1578 1579 1580 1580 1579 1581
1513 1505 1505 1507 1501 1502 1498 1499 1502 1501 1508 1512 1514 1522 1529 1535 1538 1543 1546 1550 1555 1558 1562 1562 1563 1565 1567 1568 1569 1570 1571 1571 1572 1572 1573 1574 1574 1574 1575 1576 1578 1579 1580 1581 1581 1582 1583 1583 1584
1510 1503 1496 1497 1501 1506 1506 1504 1506 1507 1511 1511 1515 1520 1531 1536 1541 1545 1548 1552 1557 1559 1563 1565 1566 1567 1568 1570 1572 1572 1573 1574 1575 1575 1576 1576 1577 1577 1578 1579 1580 1581 1582 1583 1584 1585 1586 1586 1586
1503 1496 1488 1488 1501 1506 1512 1511 1511 1509 1509 1514 1515 1522 1530 1537 1542 1546 1550 1553 1557 1561 1566 1568 1569 1571 1571 1572 1573 1574 1575 1576 1577 1578 1579 1580 1580 1581 1581 1582 1582 1583 1584 1586 1587 1588 1588 1588 1589
1498 1501 1497 1490 1499 1502 1512 1513 1513 1512 1514 1518 1518 1522 1530 1537 1543 1547 1551 1555 1560 1563 1566 1569 1570 1572 1573 1575 1575 1576 1578 1579 1580 1581 1582 1582 1584 1586 1585 1585 1585 1586 1587 1589 1590 1591 1591 1591 1592
1493 1510 1488 1488 1495 1495 1507 1510 1514 1515 1517 1518 1519 1524 1533 1539 1544 1548 1552 1556 1561 1564 1567 1569 1569 1573 1575 1579 1578 1581 1582 1583 1584 1586 1585 1587 1587 1589 1589 1588 1589 1590 1591 1592 1593 1594 1594 1593 1594
1489 1501 1487 1495 1495 1496 1504 1509 1516 1515 1518 1521 1521 1527 1534 1539 1545 1549 1553 1557 1561 1565 1567 1568 1573 1575 1577 1578 1579 1582 1584 1586 1585 1587 1587 1589 1590 1590 1592 1591 1593 1594 1594 1597 1596 1595 1596 1598 1600
1489 1488 1489 1498 1501 1500 1507 1515 1518 1518 1522 1524 1525 1531 1536 1540 1545 1549 1553 1558 1563 1567 1568 1571 1575 1576 1578 1580 1579 1583 1585 1587 1588 1589 1590 1591 1592 1593 1594 1595 1596 1597 1597 1599 1598 1599 1598 1600 1601
1488 1485 1488 1494 1500 1503 1511 1515 1518 1521 1521 1522 1525 1533 1538 1542 1546 1550 1554 1559 1565 1568 1571 1574 1576 1577 1580 1581 1584 1583 1587 1587 1589 1591 1591 1593 1595 1595 1596 1597 1598 1599 1600 1601 1601 1600 1601 1602 1602
1485 1484 1486 1490 1496 1503 1507 1516 1518 1522 1521 1522 1525 1532 1538 1542 1546 1551 1555 1561 1566 1569 1572 1575 1577 1579 1580 1582 1585 1586 1583 1588 1591 1591 1593 1595 1596 1596 1597 1598 1600 1601 1602 1602 1603 1600 1601 1602 1603
1484 1486 1486 1487 1491 1503 1508 1514 1520 1522 1523 1523 1527 1533 1538 1542 1547 1552 1557 1562 1566 1569 1573 1575 1578 1579 1581 1583 1585 1587 1589 1588 1591 1592 1593 1594 1597 1598 1599 1599 1601 1602 1601 1602 1603 1603 1604 1604 1605
1485 1481 1483 1481 1491 1496 1505 1519 1520 1523 1521 1523 1528 1534 1538 1543 1548 1553 1558 1562 1566 1569 1573 1576 1579 1581 1583 1584 1586 1588 1587 1586 1587 1593 1594 1595 1596 1598 1599 1601 1603 1602 1604 1605 1605 1605 1605 1606 1606
1481 1480 1475 1482 1483 1493 1508 1518 1522 1524 1523 1524 1528 1533 1538 1543 1548 1553 1558 1562 1566 1570 1573 1576 1579 1582 1584 1585 1588 1590 1590 1592 1593 1592 1594 1595 1596 1597 1599 1601 1602 1603 1605 1606 1607 1606 1606 1607 1606
1477 1471 1462 1474 1482 1490 1510 1517 1522 1525 1525 1526 1527 1532 1536 1540 1546 1553 1558 1562 1566 1570 1573 1577 1579 1581 1584 1585 1588 1590 1590 1593 1594 1595 1592 1595 1597 1598 1599 1600 1602 1603 1606 1608 1603 1607 1608 1608 1607
1455 1464 1466 1466 1477 1494 1516 1519 1518 1517 1520 1524 1530 1532 1534 1539 1544 1551 1556 1561 1565 1569 1573 1576 1579 1580 1584 1587 1589 1590 1591 1593 1594 1596 1595 1597 1597 1598 1599 1603 1603 1605 1607 1606 1608 1609 1609 1610 1609
1458 1458 1462 1469 1477 1504 1518 1517 1523 1516 1516 1519 1524 1531 1537 1539 1543 1549 1555 1559 1564 1568 1572 1575 1578 1580 1584 1587 1589 1590 1591 1593 1594 1596 1597 1598 1598 1599 1601 1603 1604 1605 1607 1608 1608 1609 1610 1610 1610
1463 1460 1466 1479 1477 1485 1495 1509 1512 1510 1509 1516 1523 1530 1535 1539 1542 1547 1553 1557 1562 1567 1571 1574 1577 1579 1583 1587 1587 1589 1591 1593 1594 1596 1597 1598 1599 1601 1602 1602 1603 1606 1608 1609 1609 1609 1609 1610 1612
1472 1457 1460 1470 1481 1493 1496 1534 1518 1504 1514 1519 1525 1530 1535 1538 1541 1544 1550 1554 1560 1566 1570 1574 1576 1579 1583 1585 1587 1588 1590 1593 1592 1595 1597 1598 1600 1601 1603 1604 1605 1606 1607 1609 1611 1611 1609 1611 1612
1466 1461 1469 1473 1477 1482 1500 1514 1533 1500 1511 1520 1523 1528 1534 1537 1539 1542 1546 1551 1556 1563 1568 1573 1576 1579 1583 1585 1587 1589 1589 1591 1594 1593 1596 1599 1600 1602 1603 1604 1605 1605 1607 1609 1610 1611 1610 1612 1612
1470 1468 1478 1475 1474 1484 1484 1502 1517 1522 1508 1511 1519 1524 1530 1532 1537 1541 1544 1549 1553 1559 1565 1570 1574 1577 1581 1583 1585 1588 1590 1591 1593 1594 1596 1598 1601 1602 1603 1604 1605 1605 1604 1607 1610 1611 1611 1611 1612
1477 1481 1496 1501 1493 1487 1466 1492 1526 1514 1516 1524 1527 1528 1527 1530 1532 1536 1541 1546 1551 1554 1561 1566 1571 1574 1577 1580 1584 1586 1589 1589 1591 1595 1597 1595 1598 1599 1601 1603 1603 1605 1606 1608 1611 1611 1612 1613 1614
1476 1472 1478 1503 1490 1477 1449 1490 1514 1511 1525 1533 1535 1535 1533 1531 1530 1533 1537 1543 1547 1552 1557 1563 1566 1570 1574 1577 1581 1584 1587 1590 1593 1595 1596 1597 1593 1598 1598 1601 1603 1604 1607 1609 1610 1611 1612 1613 1614
1473 1476 1452 1459 1452 1465 1472 1507 1509 1511 1522 1538 1543 1542 1539 1535 1529 1530 1535 1537 1540 1547 1552 1558 1563 1566 1570 1574 1577 1580 1584 1587 1591 1593 1594 1595 1596 1595 1596 1598 1603 1604 1605 1607 1608 1609 1610 1612 1612
1477 1465 1472 1466 1480 1481 1474 1502 1500 1521 1530 1538 1543 1543 1540 1536 1529 1527 1534 1537 1540 1538 1546 1553 1559 1563 1567 1571 1574 1577 1581 1583 1587 1590 1592 1594 1595 1595 1587 1596 1601 1603 1604 1605 1606 1609 1609 1610 1612
1476 1476 1467 1457 1453 1463 1480 1500 1504 1522 1535 1539 1545 1544 1542 1539 1536 1534 1534 1533 1534 1534 1530 1540 1552 1559 1563 1567 1571 1574 1577 1581 1583 1586 1588 1590 1592 1594 1594 1597 1600 1602 1603 1604 1605 1606 1607 1608 1609
1476 1471 1467 1476 1474 1457 1455 1537 1523 1528 1533 1540 1545 1545 1544 1541 1539 1536 1533 1530 1532 1531 1511 1528 1541 1555 1558 1561 1565 1570 1574 1577 1580 1582 1585 1586 1589 1592 1593 1596 1597 1600 1602 1603 1604 1604 1607 1607 1607